This demonstration page uses our WeatherBlox Daily Observations layout. Learn more.

Left ArrowRight Arrow

39.92423, -83.80882

Hourly Observations for January 12, 2020

Temp ( °F °C ) Dew Point ( °F °C ) Humidity (%) Winds ( mph kmh ) Pressure ( in mb ) Visibility ( mi km ) Precip ( " mm )
12:09 am 00:09 Cloudy with Light Rain 48 9 48 9 100 100 W 26 43 29.77 1008 2.5 4.02335 0 0
12:22 am 00:22 Cloudy with Light Rain 46 8 46 8 100 100 WSW 31 50 29.8 1009 5 8.0467 0 0
12:37 am 00:37 Cloudy 45 7 43 6 93 93 WSW 32 52 29.82 1010 8 12.87472 0 0
12:56 am 00:56 Cloudy 44 6.7 41 5 89 89 W 31 50 29.83 1010 10 16.0934 0 0
1:56 am 01:56 Cloudy 41 5 39 3.9 93 93 W 32 52 29.91 1013 10 16.0934 0 0
2:47 am 02:47 Cloudy with Light Rain 39 4 37 3 93 93 W 32 52 30.02 1016 5 8.0467 0 0
2:54 am 02:54 Cloudy with Light Rain 39 4 37 3 93 93 W 31 50 30.03 1017 6 9.65604 0 0
2:56 am 02:56 Cloudy with Light Rain 39 3.9 38 3.3 96 96 W 32 52 30 1016 8 12.87472 0 0
3:34 am 03:34 Cloudy 37 3 36 2 93 93 W 22 35 30.07 1018 10 16.0934 0 0
3:56 am 03:56 Cloudy 38 3.3 36 2.2 93 93 W 21 33 30.06 1018 10 16.0934 0 0
4:56 am 04:56 Cloudy 37 2.8 35 1.7 93 93 W 17 28 30.11 1020 10 16.0934 0 0
5:56 am 05:56 Cloudy 37 2.8 34 1.1 89 89 W 13 20 30.18 1022 10 16.0934 0 0
6:56 am 06:56 Cloudy 36 2.2 34 1.1 93 93 W 12 19 30.22 1024 10 16.0934 0 0
7:56 am 07:56 Cloudy 36 2.2 34 1.1 93 93 WSW 10 17 30.26 1025 10 16.0934 0 0
8:33 am 08:33 Cloudy 36 2 34 1 93 93 W 14 22 30.31 1026 10 16.0934 0 0
8:56 am 08:56 Cloudy 36 2.2 34 1.1 93 93 WNW 9 15 30.29 1026 10 16.0934 0 0
9:56 am 09:56 Cloudy 36 2.2 33 0.6 89 89 WNW 7 11 30.33 1027 10 16.0934 0 0
10:45 am 10:45 Cloudy 36 2 34 1 93 93 NW 7 11 30.39 1029 10 16.0934 0 0
10:56 am 10:56 Cloudy 36 2.2 33 0.6 89 89 WNW 7 11 30.36 1028 10 16.0934 0 0
11:51 am 11:51 Cloudy with Light Rain 36 2 34 1 93 93 W 7 11 30.39 1029 10 16.0934 0 0
11:56 am 11:56 Cloudy with Light Rain 36 2.2 34 1.1 93 93 W 5 7 30.37 1028 10 16.0934 0 0
12:56 pm 12:56 Cloudy with Light Rain 36 2.2 35 1.7 97 97 NNW 3 6 30.35 1028 10 16.0934 0 0
1:13 pm 13:13 Cloudy 36 2 36 2 100 100 Calm 30.36 1028 10 16.0934 0 0
1:20 pm 13:20 Cloudy 36 2 34 1 93 93 N 3 6 30.36 1028 10 16.0934 0 0
1:32 pm 13:32 Cloudy 36 2 34 1 93 93 Calm 30.35 1028 10 16.0934 0 0
1:45 pm 13:45 Cloudy 36 2 34 1 93 93 Calm 30.35 1028 10 16.0934 0 0
1:56 pm 13:56 Cloudy 37 2.8 35 1.7 93 93 Calm 30.33 1027 10 16.0934 0 0
2:36 pm 14:36 Cloudy 37 3 36 2 93 93 Calm 30.33 1027 10 16.0934 0 0
2:56 pm 14:56 Cloudy 37 2.8 35 1.7 93 93 Calm 30.31 1026 10 16.0934 0 0
3:06 pm 15:06 Cloudy 37 3 36 2 93 93 E 6 9 30.32 1027 10 16.0934 0 0
3:54 pm 15:54 Cloudy 37 3 36 2 93 93 E 5 7 30.33 1027 10 16.0934 0 0
3:56 pm 15:56 Cloudy 38 3.3 36 2.2 93 93 E 5 7 30.31 1027 10 16.0934 0 0
4:56 pm 16:56 Cloudy 39 3.9 36 2.2 89 89 SSW 3 6 30.31 1027 10 16.0934 0 0
5:56 pm 17:56 Cloudy 39 3.9 37 2.8 93 93 SSE 5 7 30.32 1027 10 16.0934 0 0
6:10 pm 18:10 Cloudy 39 4 37 3 93 93 SE 3 6 30.32 1027 10 16.0934 0 0
6:56 pm 18:56 Cloudy 39 3.9 38 3.3 96 96 SSE 6 9 30.32 1027 10 16.0934 0 0
7:39 pm 19:39 Cloudy 39 4 37 3 93 93 ESE 5 7 30.32 1027 10 16.0934 0 0
7:56 pm 19:56 Cloudy 39 3.9 38 3.3 96 96 E 3 6 30.3 1026 10 16.0934 0 0
8:23 pm 20:23 Cloudy 39 4 39 4 100 100 E 5 7 30.3 1026 10 16.0934 0 0
8:56 pm 20:56 Cloudy 39 3.9 39 3.9 100 100 ESE 6 9 30.28 1025 10 16.0934 0 0
9:56 pm 21:56 Cloudy 39 3.9 38 3.3 96 96 ESE 8 13 30.27 1025 10 16.0934 0 0
10:56 pm 22:56 Cloudy 39 3.9 38 3.3 96 96 SE 7 11 30.28 1025 10 16.0934 0 0
11:56 pm 23:56 Cloudy 39 3.9 38 3.3 96 96 SE 8 13 30.27 1025 10 16.0934 0 0

Powered by AerisWeather